Dallas Addison, TX

1:29 AM CST on November 21, 2017 (GMT -0600)
Addison

Weather History for KADS - January, 2014

Change the Weather History Date:

Tuesday, January 7, 2014

  Actual Average Record
Temperature  
Mean Temperature 34 °F -  
Max Temperature 46 °F 54 °F 82 °F (2006)
Min Temperature 23 °F 38 °F 14 °F (2017)
Degree Days  
Heating Degree Days 30    
Moisture  
Dew Point 9 °F    
Average Humidity 40    
Maximum Humidity 54    
Minimum Humidity 22    
Precipitation  
Precipitation 0.00 in - - ()
Sea Level Pressure  
Sea Level Pressure 30.45 in    
Wind  
Wind Speed 6 mph (South)    
Max Wind Speed 17 mph    
Max Gust Speed 25 mph    
Visibility 12 miles    
Events      
Averages and records for this station are not official NWS values.
T = Trace of Precipitation, MM = Missing Value Source: NWS Daily Summary

Daily Weather History Graph

Daily Weather History Graph

Search for Another Location

Airport or City:

Trip Planner

Search our weather history database for the weather conditions in past years. The results will help you decide how hot, cold, wet, or windy it might be!

Date:

Astronomy

Jan. 07, 2014 Rise Set
Actual Time 7:31 AM CST 5:36 PM CST
Civil Twilight 7:03 AM CST 6:03 PM CST
Nautical Twilight 6:33 AM CST 6:34 PM CST
Astronomical Twilight 6:03 AM CST 7:04 PM CST
Moon 11:44 AM CST (1/7) No Moon Set
Length of Visible Light 10h 59m
Length of Day
10h 05m
Waxing Crescent, 46% of the Moon is Illuminated
Jan 7
Waxing Crescent
Jan 7
First Quarter
Jan 15
Full
Jan 23
Last Quarter
Jan 30
New

Hourly Weather History & Observations

Time (CST) Temp. Windchill Dew Point Humidity Pressure Visibility Wind Dir Wind Speed Gust Speed Precip Events Conditions
12:15 AM 27.0 °F 23.0 °F 8.4 °F 46% 30.58 in 10.0 mi SSW 3.5 mph - N/A   Clear
12:35 AM 26.4 °F 20.9 °F 8.6 °F 47% 30.58 in 10.0 mi SSW 4.6 mph - N/A   Clear
12:55 AM 25.7 °F 21.5 °F 9.5 °F 50% 30.57 in 10.0 mi SW 3.5 mph - N/A   Clear
1:15 AM 25.3 °F 21.1 °F 9.5 °F 51% 30.56 in 10.0 mi SW 3.5 mph - N/A   Clear
1:35 AM 25.3 °F - 9.5 °F 51% 30.56 in 10.0 mi Calm Calm - N/A   Clear
1:55 AM 25.2 °F 20.9 °F 9.3 °F 51% 30.57 in 10.0 mi SW 3.5 mph - N/A   Clear
2:15 AM 24.8 °F - 9.5 °F 52% 30.56 in 10.0 mi Calm Calm - N/A   Clear
2:35 AM 24.8 °F - 9.5 °F 52% 30.57 in 10.0 mi Calm Calm - N/A   Clear
2:55 AM 24.4 °F - 9.5 °F 53% 30.57 in 10.0 mi Calm Calm - N/A   Clear
3:15 AM 23.9 °F - 9.5 °F 54% 30.57 in 10.0 mi Calm Calm - N/A   Clear
3:35 AM 23.9 °F - 9.5 °F 54% 30.56 in 10.0 mi Calm Calm - N/A   Clear
3:55 AM 24.3 °F - 9.3 °F 53% 30.56 in 10.0 mi Calm Calm - N/A   Clear
4:15 AM 24.4 °F 20.1 °F 9.3 °F 53% 30.56 in 10.0 mi SW 3.5 mph - N/A   Clear
4:35 AM 24.3 °F 19.9 °F 9.3 °F 53% 30.55 in 10.0 mi SW 3.5 mph - N/A   Clear
4:55 AM 24.1 °F 18.2 °F 9.3 °F 53% 30.55 in 10.0 mi SW 4.6 mph - N/A   Clear
6:55 AM 23.0 °F 13.9 °F 8.6 °F 54% 30.52 in 13.0 mi South 8.1 mph - N/A   Clear
7:55 AM 24.8 °F 16.9 °F 8.6 °F 50% 30.53 in 15.0 mi SSW 6.9 mph - N/A   Clear
8:47 AM 26.6 °F 18.2 °F 10.4 °F 51% 30.53 in 13.0 mi SSW 8.1 mph - N/A   Clear
9:47 AM 32.0 °F 24.2 °F 8.6 °F 38% 30.53 in 13.0 mi SSW 9.2 mph 18.4 mph N/A   Clear
10:47 AM 35.6 °F 28.6 °F 8.6 °F 33% 30.53 in 13.0 mi South 9.2 mph 17.3 mph N/A   Clear
12:47 PM 41.0 °F 32.5 °F 6.8 °F 24% 30.43 in 15.0 mi South 17.3 mph 23.0 mph N/A   Clear
1:47 PM 44.6 °F 38.4 °F 8.6 °F 23% 30.38 in 13.0 mi South 12.7 mph 21.9 mph N/A   Clear
2:47 PM 46.4 °F 41.5 °F 10.4 °F 23% 30.36 in 13.0 mi South 10.4 mph 18.4 mph N/A   Clear
3:47 PM 46.4 °F 40.1 °F 8.6 °F 22% 30.33 in 20.0 mi South 15.0 mph 20.7 mph N/A   Clear
4:54 PM 42.8 °F 35.1 °F 6.8 °F 23% 30.33 in 20.0 mi SSE 16.1 mph 25.3 mph N/A   Clear
5:47 PM 42.8 °F 35.4 °F 6.8 °F 23% 30.32 in 13.0 mi SSE 15.0 mph 24.2 mph N/A   Clear
6:47 PM 39.2 °F 30.8 °F 6.8 °F 26% 30.32 in 13.0 mi SSE 15.0 mph 21.9 mph N/A   Clear
7:47 PM 39.2 °F 32.5 °F 8.6 °F 28% 30.33 in 13.0 mi SSE 10.4 mph 18.4 mph N/A   Clear
8:47 PM 39.2 °F 30.8 °F 6.8 °F 26% 30.32 in 13.0 mi South 15.0 mph 23.0 mph N/A   Clear
9:15 PM 38.3 °F 31.9 °F 8.8 °F 30% 30.34 in 10.0 mi South 9.2 mph 18.4 mph N/A   Clear
9:35 PM 37.4 °F 29.3 °F 10.0 °F 32% 30.33 in 10.0 mi South 12.7 mph - N/A   Clear
9:47 PM 37.4 °F 29.8 °F 8.6 °F 30% 30.32 in 13.0 mi SSE 11.5 mph 18.4 mph N/A   Clear
9:55 PM 36.9 °F 27.5 °F 10.4 °F 34% 30.33 in 10.0 mi SSE 16.1 mph 19.6 mph N/A   Clear
10:15 PM 36.9 °F 29.1 °F 10.9 °F 34% 30.32 in 10.0 mi SSE 11.5 mph 17.3 mph N/A   Clear
10:55 PM 37.2 °F 29.1 °F 12.0 °F 36% 30.31 in 10.0 mi SSE 12.7 mph 16.1 mph N/A   Clear
11:15 PM 37.9 °F 30.0 °F 12.7 °F 36% 30.30 in 10.0 mi South 12.7 mph - N/A   Scattered Clouds
11:35 PM 39.9 °F 32.5 °F 13.1 °F 33% 30.29 in 10.0 mi South 12.7 mph 21.9 mph N/A   Overcast
11:55 PM 40.1 °F 33.6 °F 13.6 °F 34% 30.29 in 10.0 mi South 10.4 mph 17.3 mph N/A   Overcast